Theta_e
284 285 284 282 281 282 280 281 277 280 280 284 287 287 282 282 283 284 284 283 281 281 281 281 282 282 282 282 282 281 281 280 280 280 280 279 279 278 278 278 280 280 279 280
273 280 280 278 280 280 280 280 280 281 280 287 282 282 281 282 282 281 280 281 282 282 282 282 282 282 283 281 281 281 279 278 280 279 279 278 277 277 277 277 277 277 278 278
267 276 274 267 275 277 278 280 279 275 278 277 278 280 278 278 280 280 281 281 281 282 281 282 282 283 281 281 281 277 276 277 277 277 277 278 278 277 277 276 276 276 276 277
266 266 260 274 279 279 277 278 278 276 273 276 277 277 278 280 279 280 281 280 280 281 282 282 282 281 281 280 278 278 277 277 277 277 277 277 276 276 276 275 275 275 275 275
264 262 271 275 277 276 273 274 277 275 277 277 277 277 276 280 280 279 279 281 281 281 282 281 280 279 278 277 277 277 277 277 276 275 275 276 275 275 275 275 274 274 274 273
263 261 257 271 276 279 278 269 275 273 273 275 276 269 272 279 280 280 281 281 281 281 281 279 278 278 276 275 274 274 275 275 275 274 273 272 273 273 274 273 273 274 273 273
269 266 268 274 276 278 264 269 275 274 275 275 274 276 279 280 280 281 280 279 280 278 278 277 277 275 273 273 272 272 272 271 270 269 268 268 269 269 269 269 270 269 269 270
262 261 264 276 275 271 276 279 279 278 278 278 278 279 279 279 279 279 278 278 277 276 276 275 274 272 270 269 271 269 267 266 265 264 264 265 264 264 265 265 265 265 266 266
269 268 277 278 278 280 280 277 279 279 279 279 278 278 278 278 277 278 276 276 275 271 271 272 269 268 267 267 267 266 263 261 261 262 262 262 261 261 261 262 262 262 263 263
271 275 277 279 280 280 281 280 280 280 279 279 278 278 279 279 278 276 273 271 270 267 265 265 266 267 264 265 264 262 260 260 261 260 260 261 262 262 261 261 260 261 260 260
274 277 278 279 280 281 281 281 280 280 280 279 278 278 278 275 273 273 271 270 267 265 265 265 265 264 262 263 261 260 260 260 260 260 260 260 261 261 261 263 263 262 263 264
272 278 278 278 280 280 280 279 279 278 277 276 276 275 274 272 272 270 268 267 265 263 263 262 261 261 261 259 258 259 259 260 259 259 259 260 260 260 265 267 269 270 270 269
278 281 281 281 280 280 279 279 279 277 276 275 273 272 271 269 269 266 264 263 262 261 261 260 259 259 259 259 258 260 258 259 259 259 259 259 259 259 258 262 267 269 269 270
282 281 279 280 279 279 278 275 273 271 271 271 269 266 266 265 265 262 262 261 260 259 257 256 256 257 259 258 260 260 260 259 259 259 258 259 259 260 260 260 259 261 266 268
281 280 279 276 275 273 272 270 267 268 268 266 265 264 264 262 262 262 261 259 257 255 255 255 255 257 259 261 260 259 259 259 259 259 260 260 261 261 261 261 261 262 263 266
274 270 269 270 271 269 268 266 265 267 265 264 263 263 263 261 259 258 257 254 252 254 254 253 257 259 260 260 259 259 258 259 260 260 260 260 260 261 261 262 262 263 264 264
268 266 263 264 267 266 264 265 265 265 263 262 262 260 256 254 254 253 254 250 250 252 254 255 258 260 259 259 257 258 259 259 258 259 259 259 260 261 261 262 262 262 262 264
265 265 264 263 264 263 262 262 261 260 259 260 259 256 255 252 253 252 251 249 249 252 254 256 255 259 259 257 257 259 257 257 258 257 258 259 259 260 261 261 260 260 261 262
260 261 262 262 260 259 258 257 257 257 257 255 253 254 254 254 252 249 247 247 248 251 254 252 261 259 257 256 260 257 257 256 256 257 257 258 258 259 260 260 259 260 260 260
257 257 256 256 255 254 253 253 253 252 251 250 248 246 248 249 248 247 246 249 252 256 251 252 256 257 256 255 257 255 254 256 256 256 256 257 257 258 259 259 259 259 259 260
254 253 253 253 253 252 251 250 249 249 250 251 250 248 248 247 245 246 245 250 253 252 253 257 256 257 256 255 255 251 252 253 254 255 255 256 256 257 258 258 259 259 259 259
251 251 252 251 249 248 248 247 246 247 247 247 247 246 246 247 247 249 251 254 253 258 257 258 258 257 257 256 252 251 252 251 251 253 255 255 256 256 256 256 257 257 258 258
247 248 249 248 247 246 244 244 245 245 247 247 248 248 249 252 254 255 252 255 256 258 259 258 259 260 259 254 252 250 251 250 251 252 252 253 255 255 255 256 256 256 256 257
245 245 245 244 242 242 244 246 245 247 248 249 249 250 252 252 255 258 259 259 260 260 259 259 259 262 258 253 252 251 250 249 250 248 249 253 250 253 254 254 254 255 256 256
243 243 242 242 243 246 245 247 247 249 249 250 254 255 256 258 256 256 257 257 260 259 258 259 260 259 253 251 250 249 250 249 248 248 249 248 249 250 251 252 253 254 255 255
244 245 245 245 245 247 248 248 249 250 251 254 256 256 257 258 259 258 259 259 258 258 257 257 255 253 252 251 250 249 251 251 251 250 250 249 249 250 250 251 252 252 253 253
243 247 246 247 247 247 247 248 249 253 255 255 255 257 257 257 257 257 257 257 256 256 256 253 254 253 251 250 249 249 249 249 251 249 246 247 247 246 248 249 249 250 251 251
Wind_Speed
13 13 13 10 14 16 13 16 16 23 23 23 21 12 2 4 6 5 5 6 7 2 1 4 3 3 3 4 5 4 4 5 6 6 6 6 7 6 7 6 7 6 8 8
7 4 9 16 21 16 17 20 22 22 24 16 6 5 3 4 4 2 4 5 3 5 4 5 5 5 5 5 6 3 5 7 8 8 8 6 5 6 6 7 7 7 10 8
8 1 3 9 19 19 16 18 17 18 12 3 3 4 5 4 3 5 5 4 5 5 6 5 4 2 4 5 4 3 4 6 7 7 8 11 9 9 11 10 9 11 11 10
5 5 5 11 2 4 8 10 5 1 3 5 4 2 2 4 7 6 3 2 3 4 5 4 0 2 4 4 4 4 6 7 7 7 9 9 9 10 13 11 13 13 14 14
4 7 9 13 8 9 5 13 1 4 6 5 5 5 6 5 4 1 3 4 4 3 2 4 4 4 3 3 4 5 7 8 7 6 10 12 14 15 15 13 14 15 15 18
2 5 8 1 6 5 2 10 6 6 4 3 2 1 5 4 4 4 5 4 4 4 3 5 5 6 3 5 5 8 9 9 9 10 12 15 16 17 15 15 17 15 19 18
12 8 8 1 5 5 5 12 2 5 5 5 5 7 10 6 6 5 5 2 5 6 5 5 6 5 6 7 8 6 8 10 12 13 13 14 16 15 16 17 18 19 20 20
2 3 11 3 4 7 6 3 6 7 8 8 8 8 7 8 6 6 3 5 6 5 4 5 5 5 8 9 9 9 10 11 12 12 11 12 15 15 16 16 18 19 19 19
9 7 4 6 8 8 4 5 6 7 9 9 9 7 7 7 5 5 5 4 4 3 5 4 3 2 9 11 11 12 12 12 12 12 12 12 13 14 13 13 13 14 14 15
1 9 13 17 14 10 11 11 8 7 8 6 8 8 7 3 2 3 3 3 2 3 3 5 3 5 4 10 11 11 13 13 13 13 14 12 10 11 11 12 13 13 14 15
14 14 17 17 13 14 16 16 11 9 8 9 8 7 4 4 3 2 3 2 3 2 4 7 7 8 6 9 9 11 13 13 13 11 13 13 12 11 12 13 15 15 14 15
14 12 14 14 11 9 9 9 8 7 5 3 4 5 4 3 3 2 2 2 2 2 5 7 7 8 9 6 6 11 13 11 11 12 12 12 13 13 22 29 32 33 35 29
16 18 18 14 9 9 8 9 7 6 3 6 4 4 4 3 3 3 2 3 3 4 5 8 9 10 8 8 7 10 12 14 12 13 12 12 12 13 15 16 30 32 33 34
19 16 16 16 14 4 4 5 6 6 5 5 5 4 3 1 1 1 3 3 3 4 5 6 8 11 10 6 9 11 13 17 12 11 11 12 12 14 13 15 15 15 23 27
18 10 8 1 5 4 4 4 3 3 5 5 4 4 3 3 3 4 3 4 5 5 7 6 6 11 7 9 11 13 12 10 10 10 11 13 12 13 13 14 15 15 15 21
2 5 4 3 3 6 5 4 4 4 5 4 4 3 2 0 1 4 5 5 3 6 7 5 9 9 8 10 11 10 11 15 13 10 10 11 11 12 13 13 14 13 13 13
5 3 2 2 5 5 4 4 4 4 4 3 2 2 1 3 3 5 6 5 5 7 7 8 11 7 9 8 9 8 9 10 12 9 10 10 11 11 12 12 12 12 12 13
5 5 5 5 4 5 4 4 4 4 2 2 1 1 3 3 6 6 7 5 5 7 7 8 5 8 8 7 8 7 8 8 8 9 10 10 11 11 11 11 12 12 12 12
5 6 5 6 5 5 4 3 3 3 2 0 1 4 4 5 5 6 4 4 5 7 7 3 8 9 8 8 9 6 7 9 8 8 8 12 10 10 11 11 11 11 11 11
5 5 6 5 5 3 3 2 2 2 3 1 3 3 6 7 7 6 3 6 8 7 4 4 6 6 6 6 8 6 5 7 8 8 8 9 9 11 10 12 11 11 11 11
6 5 5 5 3 2 0 1 1 3 4 3 5 6 7 6 5 4 4 5 6 3 2 5 3 4 4 5 6 3 5 5 6 7 7 8 9 9 10 10 10 10 10 10
4 4 4 3 2 2 3 2 2 4 4 5 5 5 5 8 7 7 9 9 4 3 3 2 2 5 4 7 3 3 5 4 4 4 6 7 8 8 9 9 10 10 10 10
4 3 3 2 1 3 5 4 4 4 6 6 7 7 7 7 5 5 3 2 1 4 2 2 5 8 8 3 3 3 4 4 4 5 5 6 7 7 8 8 8 8 9 9
3 3 1 1 2 3 4 4 4 6 6 7 7 7 6 4 4 4 3 2 4 4 3 4 5 7 7 3 3 4 4 4 4 3 3 6 4 5 6 7 8 8 8 9
3 2 1 1 2 3 3 5 5 5 4 5 6 4 4 4 2 2 2 2 5 3 2 5 7 6 3 3 3 4 4 3 4 3 4 3 4 5 5 6 6 7 7 7
3 2 1 3 3 3 3 2 2 4 3 4 4 2 2 2 2 3 2 3 2 4 3 3 2 2 2 3 4 4 4 4 4 4 5 4 4 5 6 7 6 7 6 6
1 1 1 2 1 1 2 2 2 3 3 3 4 3 3 3 4 4 4 3 3 4 3 2 3 3 3 3 4 4 3 4 5 4 3 4 4 4 5 6 6 6 6 5
Wind_Direction
258 275 290 296 279 279 274 265 259 274 276 276 288 303 39 106 90 125 202 212 214 170 322 298 296 300 326 327 337 339 338 324 305 301 295 295 291 285 280 285 282 280 295 292
281 271 277 274 269 270 269 267 265 267 269 286 12 53 72 59 44 357 13 349 274 176 223 253 257 264 273 288 292 306 321 313 311 312 314 295 263 269 282 285 286 284 285 273
254 134 320 294 252 248 253 254 259 268 274 347 21 53 61 40 319 288 282 315 320 252 228 229 230 279 283 280 292 282 272 280 279 279 283 289 288 291 296 295 291 290 287 281
256 67 239 249 210 317 287 281 283 261 168 188 176 12 348 281 255 250 273 319 313 320 311 277 95 6 343 341 320 292 280 273 271 274 274 279 276 275 286 293 295 293 289 285
205 203 278 302 292 294 310 289 27 260 191 158 23 320 277 260 74 51 276 258 251 262 327 39 25 28 8 319 281 285 287 291 294 297 299 298 293 290 287 287 285 286 285 287
176 209 224 130 95 139 97 271 224 150 135 108 312 261 264 337 333 300 288 274 277 304 52 47 31 30 4 315 312 302 306 314 317 313 305 301 298 297 297 291 286 284 282 280
236 246 263 195 125 110 119 268 198 139 184 221 210 212 246 254 261 253 236 286 62 44 41 37 30 23 331 313 305 317 329 315 311 311 309 303 299 297 296 292 289 284 282 281
168 242 274 154 108 165 213 170 178 208 232 249 275 269 258 255 257 259 84 62 49 29 23 15 17 350 319 312 321 321 313 311 308 303 298 296 293 293 290 289 285 284 283 281
184 199 207 190 206 218 235 215 247 227 246 248 260 248 259 247 253 93 87 69 58 39 336 347 1 353 318 318 321 317 313 306 301 297 295 291 291 292 290 286 283 284 284 286
87 247 253 264 262 260 266 264 247 247 256 254 246 249 241 192 114 79 77 76 67 22 326 308 313 324 298 312 315 311 306 304 304 302 300 293 286 286 288 287 284 284 284 281
246 252 257 261 258 261 266 266 267 257 241 241 228 234 181 144 132 119 90 56 52 342 306 306 320 314 310 308 309 305 304 303 302 300 300 298 289 287 283 278 278 280 275 277
241 240 243 247 243 229 233 237 233 243 237 206 165 170 129 144 108 91 59 20 316 291 298 302 307 304 302 295 294 298 301 305 305 302 297 296 295 290 285 290 293 292 292 290
251 253 257 259 254 253 233 248 238 208 192 166 134 117 113 122 100 63 357 297 291 301 302 304 304 299 298 294 286 296 297 302 300 298 296 295 295 295 296 292 293 294 294 293
247 257 263 259 261 250 158 121 93 89 88 81 100 81 90 100 16 200 251 272 299 288 282 280 285 289 292 287 295 300 301 297 295 294 293 293 293 294 295 297 299 297 296 295
254 236 246 132 113 104 90 108 110 151 139 130 114 131 146 199 232 258 319 296 280 283 278 276 282 289 292 304 305 307 301 295 294 294 294 294 296 297 297 297 296 295 295 296
130 99 83 122 144 145 131 113 144 167 141 130 150 185 191 36 300 281 275 267 292 297 288 283 283 293 304 313 305 311 301 291 299 304 305 304 305 303 303 305 305 309 313 311
132 249 127 189 178 159 159 126 137 132 122 146 165 127 136 258 260 268 270 267 251 262 273 273 282 301 309 302 309 307 305 310 309 308 311 310 311 313 312 311 316 316 315 320
73 76 76 102 115 130 132 123 111 103 139 118 127 190 231 233 259 268 269 274 292 290 268 262 271 297 311 298 301 319 310 303 314 314 314 318 319 316 319 322 324 323 324 326
72 95 78 86 59 65 57 55 63 59 42 74 238 253 257 258 260 259 265 296 286 278 273 281 305 321 302 296 333 328 304 313 316 318 321 322 324 325 326 332 331 331 332 333
102 85 86 84 65 67 56 39 33 319 287 276 256 271 271 268 265 268 265 259 248 250 268 289 295 296 298 300 340 303 296 308 320 328 327 328 329 329 330 338 340 342 345 346
111 102 94 87 77 43 20 237 232 260 265 247 245 252 258 265 264 259 280 270 267 196 263 290 279 303 306 320 317 292 301 309 321 331 329 336 333 336 337 341 347 352 353 355
100 91 83 82 67 310 283 281 268 274 272 273 271 266 270 275 270 260 232 233 247 301 268 264 289 298 309 327 290 310 311 312 313 322 336 340 340 338 340 347 350 353 353 357
102 96 77 59 321 272 305 294 271 231 256 252 252 251 242 250 257 287 302 249 199 270 272 290 306 318 353 319 314 318 314 321 321 329 331 334 336 336 341 346 347 350 354 356
109 84 123 280 31 24 338 297 275 258 241 256 249 243 239 259 273 247 235 305 300 297 308 295 311 342 348 312 322 319 314 319 309 300 311 320 309 326 336 339 343 343 346 352
128 141 106 18 320 277 275 283 299 298 297 279 268 255 232 241 244 288 309 284 305 330 314 324 334 349 329 318 316 307 310 312 312 322 319 309 316 321 323 332 331 335 338 344
125 118 163 194 214 251 270 320 296 298 338 335 330 17 342 333 320 328 322 329 326 323 328 326 308 313 322 307 295 301 316 317 326 319 324 319 320 327 328 330 331 334 331 331
82 184 7 351 333 319 314 303 337 328 343 326 320 353 347 341 335 337 343 337 331 326 315 303 305 312 297 294 298 301 305 301 307 305 308 306 307 308 319 320 316 315 317 322